Location: Boda
(47.1872°N, 9.5454°E)
Time: 08:34:15
(UTC+00:00)

Cosmos 2297 Rocket - Pass Details

Date: 14 May 2021
Orbit: 838 x 845 km, 71.0° (Epoch: 16 June)

Event Time Altitude Azimuth Distance (km) Brightness Sun altitude
Rises 00:13:17 0° 334° (NNW) 3,414 6.1 -23.0°
Reaches altitude 10° 00:15:47 10° 339° (NNW) 2,476 5.3 -22.9°
Maximum altitude 00:21:24 59° 59° (ENE) 973 2.7 -22.7°
Enters shadow 00:25:12 21° 133° (SE) 1,826 3.7 -22.5°
